Location: Little Baddow
(51.7333°N, 0.5667°E)
Time: 22:36:27
(UTC+00:00)

Cosmos 44 Rocket - Visible Passes

Search period start: 15 February 2026 00:00
Search period end: 25 February 2026 00:00
Orbit: 633 x 744 km, 65.1° (Epoch: 15 February)

Date Brightness Start Highest point End Pass type
(mag) Time Alt. Az. Time Alt. Az. Time Alt. Az.
15 Feb 3.6 19:13:34 10° SW 19:18:31 70° NW 19:21:51 22° NE visible
15 Feb 5.3 20:56:38 10° WNW 21:00:28 25° NNW 21:00:28 25° NNW visible
16 Feb 3.4 18:12:02 10° SSW 18:16:54 60° SE 18:21:56 10° NE visible
16 Feb 4.7 19:53:59 10° W 19:58:37 36° NNW 20:01:00 24° NNE visible
16 Feb 6.0 21:37:46 10° NW 21:39:37 16° NW 21:39:37 16° NW visible
17 Feb 3.8 18:51:44 10° SW 18:56:40 62° NW 19:01:27 12° NE visible
17 Feb 5.3 20:34:58 10° WNW 20:39:02 24° NNW 20:40:03 22° N visible
17 Feb 6.5 22:18:33 10° NW 22:18:39 10° NW 22:18:39 10° NW visible
18 Feb 3.4 17:50:04 10° SSW 17:55:00 69° SE 18:00:05 10° NE visible
18 Feb 4.8 19:32:16 10° W 19:36:49 33° NNW 19:40:25 15° NNE visible
18 Feb 5.7 21:16:05 10° NW 21:19:02 18° NNW 21:19:02 18° NNW visible
19 Feb 4.0 18:29:55 10° WSW 18:34:49 55° NW 18:39:53 10° NE visible
19 Feb 5.4 20:13:19 10° WNW 20:17:17 22° NNW 20:19:20 18° NNE visible
19 Feb 6.2 21:56:47 10° NW 21:57:55 14° NNW 21:57:55 14° NNW visible
20 Feb 5.0 19:10:34 10° W 19:15:02 31° NNW 19:19:35 10° NNE visible
20 Feb 5.6 20:54:23 10° NW 20:57:58 19° N 20:58:11 19° N visible
21 Feb 4.2 18:08:07 10° WSW 18:12:58 49° NW 18:17:59 10° NE visible
21 Feb 5.4 19:51:39 10° WNW 19:55:33 21° NNW 19:58:24 14° NNE visible
21 Feb 5.9 21:34:59 10° NW 21:36:59 17° NNW 21:36:59 17° NNW visible
22 Feb 5.1 18:48:52 10° W 18:53:15 29° NNW 18:57:43 10° NNE visible
22 Feb 5.5 20:32:40 10° NW 20:36:14 18° N 20:37:11 18° NNE visible
22 Feb 6.3 22:15:02 10° NNW 22:15:46 13° NNW 22:15:46 13° NNW visible
23 Feb 5.5 19:29:58 10° WNW 19:33:47 21° NNW 19:37:21 11° NNE visible
23 Feb 5.6 21:13:10 10° NW 21:15:56 19° N 21:15:56 19° N visible
24 Feb 5.1 18:27:11 10° W 18:31:27 27° NNW 18:35:50 10° NNE visible
24 Feb 5.4 20:10:56 10° NW 20:14:30 18° N 20:16:05 16° NNE visible
24 Feb 5.9 21:53:08 10° NNW 21:54:40 17° NNW 21:54:40 17° NNW visible
